This demonstration page uses our WeatherBlox Daily Observations layout. Learn more.

Left ArrowRight Arrow

Hourly Observations for March 18, 2022

Temp ( °F °C ) Dew Point ( °F °C ) Humidity (%) Winds ( mph kmh ) Pressure ( in mb ) Visibility ( mi km ) Precip ( " mm )
12:53 am 00:53 Clear 42 5.6 28 -2.2 58 58 NNW 9 15 30.08 1019 10 16 0.00 0.00
1:53 am 01:53 Clear 39 3.9 27 -2.8 62 62 WSW 7 11 30.11 1020 10 16 0.00 0.00
2:53 am 02:53 Clear 37 2.8 26 -3.3 65 65 WNW 9 15 30.11 1020 10 16 0.00 0.00
3:53 am 03:53 Clear 38 3.3 27 -2.8 65 65 NW 12 19 30.11 1020 10 16 0.00 0.00
4:53 am 04:53 Clear 35 1.7 26 -3.3 70 70 WNW 9 15 30.12 1020 10 16 0.00 0.00
5:53 am 05:53 Clear 36 2.2 26 -3.3 67 67 NW 9 15 30.13 1020 10 16 0.00 0.00
6:53 am 06:53 Clear 33 0.6 24 -4.4 70 70 WNW 7 11 30.15 1021 10 16 0.00 0.00
7:53 am 07:53 Clear 31 -0.6 23 -5 72 72 SW 7 11 30.18 1022 10 16 0.00 0.00
8:53 am 08:53 Sunny 36 2.2 26 -3.3 67 67 W 7 11 30.20 1023 10 16 0.00 0.00
9:53 am 09:53 Sunny 43 6.1 27 -2.8 53 53 W 7 11 30.22 1023 10 16 0.00 0.00
10:53 am 10:53 Sunny 48 8.9 28 -2.2 46 46 NNW 6 9 30.21 1023 10 16 0.00 0.00
11:53 am 11:53 Sunny 51 10.6 26 -3.3 38 38 Calm 30.20 1023 10 16 0.00 0.00
12:53 pm 12:53 Sunny 54 12.2 24 -4.4 31 31 undefined N/A 30.18 1022 10 16 0.00 0.00
1:53 pm 13:53 Sunny 56 13.3 23 -5 28 28 Calm 30.15 1021 10 16 0.00 0.00
2:53 pm 14:53 Sunny 57 13.9 23 -5 27 27 Calm 30.11 1020 10 16 0.00 0.00
3:53 pm 15:53 Sunny 58 14.4 24 -4.4 27 27 VRB 3 6 30.08 1019 10 16 0.00 0.00
4:53 pm 16:53 Sunny 58 14.4 23 -5 26 26 Calm 30.06 1018 10 16 0.00 0.00
5:53 pm 17:53 Sunny 60 15.6 22 -5.6 23 23 W 3 6 30.05 1018 10 16 0.00 0.00
6:53 pm 18:53 Sunny 59 15 23 -5 25 25 SW 6 9 30.06 1018 10 16 0.00 0.00
7:53 pm 19:53 Sunny 58 14.4 22 -5.6 25 25 SW 3 6 30.06 1018 10 16 0.00 0.00
8:53 pm 20:53 Clear 55 12.8 22 -5.6 28 28 ENE 3 6 30.06 1018 10 16 0.00 0.00
9:53 pm 21:53 Clear 49 9.4 19 -7.2 31 31 E 5 7 30.07 1018 10 16 0.00 0.00
10:53 pm 22:53 Clear 47 8.3 20 -6.7 34 34 SE 7 11 30.07 1018 10 16 0.00 0.00
11:53 pm 23:53 Clear 45 7.2 19 -7.2 35 35 Calm 30.09 1019 10 16 0.00 0.00

Powered by AerisWeather